Погода в Лозовой

Украина / Харьковская область     50°08′42″N   35°34′01″E
темп.,
°C
ветер,
м/с
пор.,
м/с
влажн.,
%
обл.,
%
осадки,
мм/ч
давл.,
гПа
погр.,
м
26 октября, вт
вт2600:00+1ююз22615 0.0 103411
03:000юз22650 0.0 103428
06:00−1ююз33715 0.0 103435
09:00+1ююз356184 0.0 1034164
12:00+6ююз454038 0.0 1032654
15:00+9юз56326 0.0 1030865
18:00+5ююз35415 0.0 103068
21:00+3ююз484622 0.0 1030128
27 октября, ср
ср2700:00+2ююз49437 0.0 1029152
03:00+1ююз49475 0.0 1029152
06:000ююз4105514 0.0 1028188
09:00+3ююз511660 0.0 1027318
12:00+8юз69440 0.0 1025770
15:00+10зюз79421 0.0 10231032
18:00+7зюз497263 0.0 1023173
21:00+7зюз377480 0.0 1023182
28 октября, чт
чт2800:00+5з3579100 0.0 1023104
03:00+5з3680100 0.0 1023123
06:00+5юз3884100 0.0 1022168
09:00+7юз51178100 0.0 1022323
12:00+10зюз6126773 0.0 1020637
15:00+13з71164100 0.0 1019932
18:00+11зсз5107495 0.0 1019629
21:00+10зсз5108674 0.1 1020525
29 октября, пт
пт2900:00+10ссз5108778 0.0 1021639
03:00+9зсз3886100 0.0 1022243
06:00+7с49944 0.0 1025224
09:00+7ссв498648 0.0 1027333
12:00+11всв555962 0.0 10281087
15:00+11всв34515 0.0 10301064
18:00+8в34605 0.0 103164
21:00+6в36645 0.0 1032103
30 октября, сб
сб3000:00+5вюв36675 0.0 1034103
03:00+3юв36695 0.0 1035105
06:00+2юв357242 0.0 103587
09:00+4ююв36655 0.0 1036172
12:00+9ююв45425 0.0 1035547
15:00+11ююв45323 0.0 1034750
18:00+7ююв35415 0.0 103470
21:00+6ююв48445 0.0 1034119